Location: Kitchener
(43.4500°N, 80.5000°W)
Time: 05:32:58
(UTC-05:00)

ATLAS 5 CENTAUR R/B - Visible Passes

Search period start: 07 December 2016 00:00
Search period end: 17 December 2016 00:00
Orbit: 650 x 1011 km, 63.4° (Epoch: 06 December)

Date Brightness Start Highest point End Pass type
(mag) Time Alt. Az. Time Alt. Az. Time Alt. Az.
08 Dec 4.2 07:04:05 10° NNW 07:08:18 20° NNE 07:12:45 10° ENE visible
09 Dec 4.2 06:45:13 10° NNW 06:49:19 19° NNE 06:53:40 10° ENE visible
10 Dec 4.3 06:26:20 10° NNW 06:30:21 19° NNE 06:34:34 10° ENE visible
11 Dec 4.3 06:07:28 10° NNW 06:11:22 18° NNE 06:15:28 10° ENE visible
12 Dec 4.4 05:48:35 10° NNW 05:52:23 18° NNE 05:56:22 10° ENE visible
13 Dec 4.4 05:30:16 12° N 05:33:24 17° NNE 05:37:16 10° ENE visible
14 Dec 4.3 05:12:01 13° N 05:14:24 16° NNE 05:18:09 10° ENE visible
14 Dec 3.0 06:54:35 10° NNW 07:00:23 54° NE 07:06:39 10° SE visible
15 Dec 4.4 04:53:48 14° N 04:55:25 16° NNE 04:59:02 10° ENE visible
15 Dec 3.1 06:35:41 10° NNW 06:41:27 51° NE 06:47:40 10° ESE visible
16 Dec 4.4 04:35:37 15° NNE 04:36:26 15° NNE 04:39:55 10° ENE visible
16 Dec 3.1 06:17:11 12° NNW 06:22:30 49° NE 06:28:41 10° ESE visible
